星链-5330 (STARLINK-5330 )

导读

STARLINK-5330是美国SpaceX公司星链互联网星座中的一颗低轨卫星,于2023年1月19日由猎鹰9号火箭发射升空。它属于星链第二代组网卫星,运行在近地轨道,负责为全球偏远地区及移动场景提供高速低时延宽带互联网接入服务。作为全球规模最大低轨星座的组成部分,它助力星链实现更广覆盖,同时也参与后续卫星技术迭代验证,目前处于正常在轨服役状态。

基本信息
目录编号:
55282
目录名称:
STARLINK-5330
国际标识:
2023-010P
轨道中心:
EARTH
卫星名称:
星链-5330
卫星全名:
星链-5330 (STARLINK-5330 )
卫星状态:
在轨 (已飞行1332 天)
发射日期:
2023-01-19 UTC
国别 :
美国 (US)
星等 :
--
该卫星已列入 空间交会检测服务 Space Conjunction Data Service (SCDS) ,当前飞行风险评估等级: 无高风险
轨道信息
数据来源 国际轨道数据
星历时间: 2026-09-12T04:09:44+0800
17小时前
查看轨道信息
半长轴: 6950.083km
偏心率: 0.0003791
轨道倾角: 69.999°
近地点辐角 266.380°
升交点赤经 294.932°
平近点角 93.692°
近地点: 569.311km
远地点: 574.581km
周期: 96.105分钟
每日圈数: 14.983656
详细信息
固有亮度:
5
最大亮度:
2.5
卫星平台:
Starlink v1.5
覆盖范围:
全球
运营商:
太空探索技术公司
运营商所在国:
美国
制造商(研发单位):
太空探索技术公司
制造商所在国:
美国
使用方式:
暂无
卫星简介
星链(Starlink)计划是由太空探索技术公司(SpaceX)提出的一个巨型低轨卫星互联网星座项目,计划在2019年至2024年间在太空搭建由约1.2万颗卫星组成的“星链”网络,其中1584颗将部署在地球上空550千米处的近地轨道,并从2020年开始工作。该卫星仍在工作。
2D轨道图
3D轨道图
轨道高度分析图
轨道倾角分析图
轨道综合分析图
查看轨道综合分析图
与全量物体交会距离演化趋势
与全量物体交会风险概率演化趋势